Weather History for KBKN - November, 2012

Change the Weather History Date:

Monday, November 26, 2012

  Actual Average (KPNC) Record (KPNC)
Temperature  
Mean Temperature 40 °F -  
Max Temperature 48 °F 61 °F 76 °F (1949)
Min Temperature 30 °F 37 °F 11 °F (1975)
Degree Days  
Heating Degree Days 25    
Moisture  
Dew Point 27 °F    
Average Humidity 60    
Maximum Humidity 80    
Minimum Humidity 37    
Precipitation  
Precipitation 0.00 in - - ()
Sea Level Pressure  
Sea Level Pressure 30.13 in    
Wind  
Wind Speed 15 mph (NNE)    
Max Wind Speed 29 mph    
Max Gust Speed 41 mph    
Visibility 10 miles    
Events      
Averages and records for this station are not official NWS values.
T = Trace of Precipitation, MM = Missing Value Source: NWS Daily Summary

Daily Weather History Graph

Daily Weather History Graph

Search for Another Location

Airport or City:

Trip Planner

Search our weather history database for the weather conditions in past years. The results will help you decide how hot, cold, wet, or windy it might be!

Date:

Astronomy

Nov. 26, 2012 Rise Set
Actual Time 7:19 AM CST 5:14 PM CST
Civil Twilight 6:50 AM CST 5:42 PM CST
Nautical Twilight 6:19 AM CST 6:14 PM CST
Astronomical Twilight 5:47 AM CST 6:45 PM CST
Moon 4:06 PM CST (11/26) 5:32 AM CST (11/26)
Length of Visible Light 10h 51m
Length of Day
9h 55m
Waxing Gibbous, 97% of the Moon is Illuminated
Nov 26
Waxing Gibbous
Nov 28
Full
Dec 6
Last Quarter
Dec 13
New
Dec 19
First Quarter

Hourly Weather History & Observations

Time (CST) Temp. Windchill Dew Point Humidity Pressure Visibility Wind Dir Wind Speed Gust Speed Precip Events Conditions
12:15 AM 42.8 °F 37.5 °F 30.2 °F 61% 29.90 in 10.0 mi ENE 9.2 mph - N/A   Clear
12:55 AM 42.8 °F 37.5 °F 30.2 °F 61% 29.90 in 10.0 mi NE 9.2 mph - N/A   Clear
1:15 AM 42.8 °F 37.5 °F 30.2 °F 61% 29.89 in 10.0 mi NE 9.2 mph - N/A   Clear
1:35 AM 41.0 °F 34.7 °F 30.2 °F 65% 29.89 in 10.0 mi NE 10.4 mph - N/A   Partly Cloudy
1:55 AM 41.0 °F 34.7 °F 30.2 °F 65% 29.89 in 10.0 mi NE 10.4 mph - N/A   Partly Cloudy
2:15 AM 41.0 °F 34.3 °F 28.4 °F 61% 29.90 in 10.0 mi NNE 11.5 mph - N/A   Clear
2:35 AM 41.0 °F 34.3 °F 28.4 °F 61% 29.90 in 10.0 mi NE 11.5 mph - N/A   Partly Cloudy
2:55 AM 41.0 °F 33.5 °F 28.4 °F 61% 29.91 in 10.0 mi NE 13.8 mph - N/A   Scattered Clouds
3:15 AM 41.0 °F 33.9 °F 28.4 °F 61% 29.91 in 10.0 mi NNE 12.7 mph - N/A   Scattered Clouds
3:35 AM 41.0 °F 33.9 °F 28.4 °F 61% 29.91 in 10.0 mi NNE 12.7 mph - N/A   Partly Cloudy
3:55 AM 41.0 °F 33.9 °F 28.4 °F 61% 29.91 in 10.0 mi NNE 12.7 mph - N/A   Partly Cloudy
4:15 AM 39.2 °F 31.6 °F 28.4 °F 65% 29.91 in 10.0 mi NNE 12.7 mph - N/A   Partly Cloudy
4:35 AM 39.2 °F 31.6 °F 28.4 °F 65% 29.92 in 10.0 mi NNE 12.7 mph - N/A   Scattered Clouds
4:55 AM 39.2 °F 30.8 °F 30.2 °F 70% 29.93 in 10.0 mi NNE 15.0 mph 19.6 mph N/A   Mostly Cloudy
5:15 AM 37.4 °F 30.3 °F 30.2 °F 75% 29.93 in 10.0 mi NNE 10.4 mph - N/A   Mostly Cloudy
5:35 AM 37.4 °F 30.3 °F 28.4 °F 70% 29.94 in 10.0 mi NNE 10.4 mph - N/A   Mostly Cloudy
5:55 AM 37.4 °F 29.3 °F 28.4 °F 70% 29.95 in 10.0 mi NNE 12.7 mph - N/A   Mostly Cloudy
6:15 AM 37.4 °F 28.5 °F 28.4 °F 70% 29.96 in 10.0 mi NNE 15.0 mph - N/A   Mostly Cloudy
6:35 AM 35.6 °F 26.6 °F 28.4 °F 75% 29.97 in 10.0 mi North 13.8 mph - N/A   Mostly Cloudy
6:55 AM 35.6 °F 26.6 °F 28.4 °F 75% 29.98 in 10.0 mi NNE 13.8 mph - N/A   Scattered Clouds
7:15 AM 35.6 °F 26.2 °F 28.4 °F 75% 30.00 in 10.0 mi NNE 15.0 mph - N/A   Clear
7:35 AM 35.6 °F 25.9 °F 28.4 °F 75% 30.02 in 10.0 mi North 16.1 mph - N/A   Clear
7:55 AM 35.6 °F 26.2 °F 28.4 °F 75% 30.03 in 10.0 mi NNE 15.0 mph - N/A   Clear
8:15 AM 35.6 °F 25.2 °F 28.4 °F 75% 30.04 in 10.0 mi NNE 18.4 mph - N/A   Clear
8:35 AM 37.4 °F 27.5 °F 28.4 °F 70% 30.06 in 10.0 mi North 18.4 mph 24.2 mph N/A   Clear
8:55 AM 37.4 °F 27.2 °F 28.4 °F 70% 30.08 in 10.0 mi NNE 19.6 mph 26.5 mph N/A   Clear
9:15 AM 39.2 °F 29.6 °F 28.4 °F 65% 30.09 in 10.0 mi North 19.6 mph 27.6 mph N/A   Clear
10:15 AM 41.0 °F 30.7 °F 28.4 °F 61% 30.11 in 10.0 mi North 25.3 mph - N/A   Clear
10:35 AM 41.0 °F 31.1 °F 28.4 °F 61% 30.13 in 10.0 mi NNE 23.0 mph 29.9 mph N/A   Clear
10:55 AM 42.8 °F 33.1 °F 28.4 °F 57% 30.14 in 10.0 mi North 25.3 mph 31.1 mph N/A   Clear
11:15 AM 44.6 °F 36.4 °F 28.4 °F 53% 30.14 in 10.0 mi NNE 20.7 mph 28.8 mph N/A   Clear
11:35 AM 44.6 °F 35.3 °F 28.4 °F 53% 30.15 in 10.0 mi North 26.5 mph 32.2 mph N/A   Clear
11:55 AM 46.4 °F 38.1 °F 28.4 °F 50% 30.15 in 10.0 mi North 24.2 mph 29.9 mph N/A   Clear
12:15 PM 48.2 °F - 26.6 °F 43% 30.15 in 10.0 mi North 25.3 mph 31.1 mph N/A   Clear
12:35 PM 48.2 °F - 26.6 °F 43% 30.14 in 10.0 mi NNE 27.6 mph 33.4 mph N/A   Clear
12:55 PM 48.2 °F - 26.6 °F 43% 30.15 in 10.0 mi North 25.3 mph 35.7 mph N/A   Clear
1:15 PM 48.2 °F - 26.6 °F 43% 30.16 in 10.0 mi North 28.8 mph 35.7 mph N/A   Clear
1:35 PM 48.2 °F - 26.6 °F 43% 30.17 in 10.0 mi NNE 28.8 mph 41.4 mph N/A   Clear
1:55 PM 48.2 °F - 26.6 °F 43% 30.17 in 10.0 mi NNE 28.8 mph 33.4 mph N/A   Clear
2:15 PM 48.2 °F - 24.8 °F 40% 30.18 in 10.0 mi North 27.6 mph 31.1 mph N/A   Clear
2:35 PM 48.2 °F - 24.8 °F 40% 30.18 in 10.0 mi NNE 24.2 mph 34.5 mph N/A   Clear
2:55 PM 48.2 °F - 23.0 °F 37% 30.19 in 10.0 mi North 24.2 mph 35.7 mph N/A   Clear
4:55 PM 46.4 °F 37.9 °F 23.0 °F 40% 30.26 in 10.0 mi North 25.3 mph 29.9 mph N/A   Clear
5:15 PM 44.6 °F 36.6 °F 21.2 °F 39% 30.27 in 10.0 mi NNE 19.6 mph 27.6 mph N/A   Clear
5:35 PM 42.8 °F 34.5 °F 23.0 °F 46% 30.28 in 10.0 mi NNE 18.4 mph 24.2 mph N/A   Clear
5:55 PM 41.0 °F 31.9 °F 23.0 °F 49% 30.30 in 10.0 mi NNE 19.6 mph 25.3 mph N/A   Clear
6:15 PM 41.0 °F 33.1 °F 21.2 °F 45% 30.32 in 10.0 mi NNE 15.0 mph - N/A   Clear
7:15 PM 39.2 °F 30.2 °F 23.0 °F 52% 30.36 in 10.0 mi North 17.3 mph - N/A   Clear
7:35 PM 39.2 °F 30.5 °F 24.8 °F 56% 30.37 in 10.0 mi NNE 16.1 mph 21.9 mph N/A   Clear
7:55 PM 37.4 °F 28.9 °F 24.8 °F 60% 30.38 in 10.0 mi North 13.8 mph - N/A   Clear
8:15 PM 37.4 °F 28.2 °F 24.8 °F 60% 30.38 in 10.0 mi NNE 16.1 mph - N/A   Clear
8:35 PM 37.4 °F 29.3 °F 24.8 °F 60% 30.39 in 10.0 mi NNE 12.7 mph - N/A   Clear
8:55 PM 35.6 °F 29.2 °F 24.8 °F 65% 30.40 in 10.0 mi North 8.1 mph - N/A   Clear
9:35 PM 33.8 °F 25.3 °F 24.8 °F 70% 30.42 in 10.0 mi NNE 11.5 mph - N/A   Clear
9:55 PM 32.0 °F 23.0 °F 24.8 °F 75% 30.43 in 10.0 mi North 11.5 mph - N/A   Clear
10:15 PM 32.0 °F 23.6 °F 24.8 °F 75% 30.44 in 10.0 mi NNE 10.4 mph - N/A   Clear
10:55 PM 32.0 °F 23.6 °F 24.8 °F 75% 30.43 in 10.0 mi NNE 10.4 mph - N/A   Clear
11:15 PM 32.0 °F 23.6 °F 24.8 °F 75% 30.44 in 10.0 mi NNE 10.4 mph - N/A   Clear
11:35 PM 32.0 °F 23.6 °F 24.8 °F 75% 30.43 in 10.0 mi NNE 10.4 mph - N/A   Clear
11:55 PM 30.2 °F 21.9 °F 24.8 °F 80% 30.44 in 10.0 mi North 9.2 mph - N/A   Clear